This demonstration page uses our WeatherBlox Daily Observations layout. Learn more.

Left ArrowRight Arrow

41.55636, -103.73856

Hourly Observations for June 17, 2021

Temp ( °F °C ) Dew Point ( °F °C ) Humidity (%) Winds ( mph kmh ) Pressure ( in mb ) Visibility ( mi km ) Precip ( " mm )
12:58 am 00:58 Clear 70 21 54 12.1 57 57 ESE 14 22 29.89 1012 10 16 N/A
1:58 am 01:58 Clear 69 20.4 54 12.4 60 60 ESE 14 22 29.90 1012 10 16 N/A
2:58 am 02:58 Clear 67 19.2 55 13 67 67 ESE 15 24 29.88 1012 10 16 N/A
3:58 am 03:58 Clear 66 18.9 55 12.9 68 68 SE 7 11 29.88 1012 10 16 N/A
4:58 am 04:58 Clear 65 18.3 56 13.1 72 72 SSE 15 24 29.88 1012 10 16 N/A
5:58 am 05:58 Sunny 65 18.5 56 13.3 72 72 S 7 11 29.90 1012 10 16 N/A
6:58 am 06:58 Sunny 67 19.7 56 13.2 66 66 N N/A 29.90 1012 10 16 N/A
7:58 am 07:58 Sunny 73 22.5 54 12.1 52 52 SSW 3 6 29.91 1013 10 16 N/A
8:58 am 08:58 Sunny 75 23.9 52 11 44 44 NW 8 13 29.91 1013 10 16 N/A
9:58 am 09:58 Sunny 78 25.5 51 10.3 38 38 NW 8 13 29.91 1013 10 16 N/A
10:58 am 10:58 Sunny 81 27.3 51 10.7 35 35 NW 3 6 29.90 1012 10 16 N/A
11:58 am 11:58 Sunny 88 31 46 7.6 23 23 NW 10 17 29.88 1012 10 16 N/A
12:58 pm 12:58 Sunny 91 33 44 6.9 20 20 ENE 8 13 29.85 1011 10 16 N/A
1:58 pm 13:58 Sunny 93 33.9 40 4.3 16 16 N N/A 29.82 1010 10 16 N/A
2:58 pm 14:58 Sunny 96 35.7 35 1.4 11 11 ENE 6 9 29.80 1009 10 16 N/A
3:58 pm 15:58 Sunny 96 35.7 39 4.1 14 14 NE 14 22 29.78 1009 10 16 N/A
4:58 pm 16:58 Sunny 94 34.6 39 3.9 14 14 E 9 15 29.77 1008 10 16 N/A
5:58 pm 17:58 Sunny 90 32.3 46 7.5 21 21 SE 14 22 29.78 1009 10 16 N/A
6:58 pm 18:58 Mostly Sunny 86 30.2 48 9 27 27 ESE 16 26 29.76 1008 10 16 N/A
7:58 pm 19:58 Mostly Sunny 80 26.6 49 9.7 35 35 E 9 15 29.78 1009 10 16 N/A
8:58 pm 20:58 Mostly Clear 82 27.5 47 8.6 30 30 NNE 6 9 29.79 1009 10 16 N/A
9:58 pm 21:58 Clear 74 23.5 49 9.6 41 41 SE 13 20 29.80 1009 10 16 N/A
10:58 pm 22:58 Clear 77 24.9 41 5.1 28 28 N N/A 29.80 1009 10 16 N/A
11:58 pm 23:58 Clear 70 21 43 6.1 38 38 E 5 7 29.79 1009 10 16 N/A

Powered by AerisWeather